Location: Martin Dies, Jr. State Park
(30.8429°N, 94.1720°W)
Time: 22:57:47
(UTC-06:00)

ISS - Pass Details

Date: 21 January 2021
Orbit: 417 x 422 km, 51.6° (Epoch: 01 March)

Event Time Altitude Azimuth Distance (km) Brightness Sun altitude
Rises 18:36:39 0° 274° (W) 2,361 1.5 -11.7°
Reaches altitude 10° 18:40:28 10° 319° (NW) 1,502 -0.6 -12.5°
Maximum altitude 18:41:04 10° 329° (NNW) 1,482 -0.8 -12.6°
Drops below altitude 10° 18:41:39 10° 339° (NNW) 1,503 -0.9 -12.7°
Enters shadow 18:44:05 - 12° (NNE) 1,946 -0.6 -13.2°
